Location: Rounton
(54.4000°N, 1.3500°W)
Time: 21:04:34
(UTC+00:00)

A-11 Canister half - Pass Details

Date: 03 December 2021
Orbit: 1516 x 1684 km, 47.2° (Epoch: 19 January)

Event Time Altitude Azimuth Distance (km) Brightness Sun altitude
Rises 11:43:31 0° 274° (W) 4,863 11.6 13.4°
Reaches altitude 10° 11:46:44 10° 270° (W) 3,895 11.2 13.4°
Maximum altitude 11:56:12 50° 199° (SSW) 2,048 10.6 13.4°
Drops below altitude 10° 12:05:49 10° 128° (SE) 3,945 11.8 13.4°
Sets 12:09:06 0° 124° (SE) 4,929 12.1 13.4°
